sat.trackr.live / text

‹ back to catalog

GEESAT-3 02

NORAD 61012 · 2024-159B

PAYLOAD ACTIVE UNKNOWN

§ Identity

Operator
Country
PRC
Launch date
2024-09-05
Launch site
TAISC
Launch vehicle
Mass (kg)
RCS (m²)

External: N2YO · Heavens-Above · Gunter

§ Orbital elements

Epoch: 2026-05-25T04:09:39.790944Z

Period
97.03 min
Inclination
49.9931°
Eccentricity
0.0019370
Mean motion
14.84150619 rev/d
Perigee alt
602.7 km
Apogee alt
629.8 km
Semi-major
6,994.4 km
B*
1.8247e-4
RAAN
190.0674°
Arg perigee
326.8316°
Mean anomaly
33.1407°
Rev number
9,337

§ Raw data

GEESAT-3 021 61012U 24159B   26145.17337721  .00001314  00000+0  18247-3 0  99932 61012  49.9931 190.0674 0019370 326.8316  33.1407 14.84150619 93372

JSON: /api/v1/satellites/61012 · /tle

For live sub-satellite position, see the globe view (requires WebGL).

§ Visibility from observer

Set your observer location to see the next 7 days of passes ≥ 10°. The values pass through the URL so the page stays shareable.

No JS? Fill the form by hand. The geolocation button needs JavaScript.